This is the latest recevied weather packets stored in our database for station/object W4DHW-4. If no packets are shown the sender has not sent any weather packets the latest 10 day(s).
| Time | Temp. | Humidity | Pressure | Rain* | Wind** | Luminosity | Snow |
|---|---|---|---|---|---|---|---|
| 1777838136 | 16.67° C | 29% | 1016.3 hPa | 0 mm | - | 63 W/m² | - |
| 1777837833 | 16.67° C | 29% | 1016.5 hPa | 0 mm | - | 593 W/m² | - |
| 1777837530 | 16.67° C | 31% | 1016.3 hPa | 0 mm | - | 628 W/m² | - |
| 1777837229 | 16.11° C | 30% | 1016.5 hPa | 0 mm | - | 647 W/m² | - |
| 1777836927 | 16.11° C | 31% | 1016.3 hPa | 0 mm | - | 671 W/m² | - |
| 1777836622 | 16.11° C | 30% | 1016.7 hPa | 0 mm | - | 651 W/m² | - |
| 1777836318 | 15.56° C | 31% | 1016.8 hPa | 0 mm | - | 658 W/m² | - |
| 1777836014 | 15.56° C | 30% | 1016.8 hPa | 0 mm | - | 698 W/m² | - |
| 1777835711 | 16.11° C | 30% | 1016.7 hPa | 0 mm | - | 712 W/m² | - |
| 1777835408 | 15.56° C | 33% | 1016.7 hPa | 0 mm | - | 718 W/m² | - |
| 1777835105 | 16.11° C | 32% | 1016.8 hPa | 0 mm | - | 719 W/m² | - |
| 1777834802 | 15.56° C | 31% | 1017 hPa | 0 mm | - | 722 W/m² | - |
| 1777834498 | 15.56° C | 29% | 1017.2 hPa | 0 mm | - | 697 W/m² | - |
| 1777834198 | 15.56° C | 30% | 1017.3 hPa | 0 mm | - | 723 W/m² | - |
| 1777833894 | 15° C | 31% | 1017.5 hPa | 0 mm | - | 734 W/m² | - |
| 1777833591 | 14.44° C | 32% | 1017.5 hPa | 0 mm | - | 738 W/m² | - |
| 1777833288 | 15° C | 31% | 1017.3 hPa | 0 mm | - | 737 W/m² | - |
| 1777832984 | 15.56° C | 33% | 1017.8 hPa | 0 mm | - | 725 W/m² | - |
| 1777832683 | 15.56° C | 32% | 1017.7 hPa | 0 mm | - | 728 W/m² | - |
| 1777832380 | 14.44° C | 32% | 1017.6 hPa | 0 mm | - | 718 W/m² | - |
| 1777832077 | 15° C | 32% | 1017.9 hPa | 0 mm | - | 741 W/m² | - |
| 1777831773 | 14.44° C | 34% | 1017.7 hPa | 0 mm | - | 757 W/m² | - |
| 1777831472 | 14.44° C | 33% | 1017.9 hPa | 0 mm | - | 755 W/m² | - |
| 1777831168 | 14.44° C | 33% | 1018 hPa | 0 mm | - | 80 W/m² | - |
| 1777830866 | 13.89° C | 34% | 1018.1 hPa | 0 mm | - | 189 W/m² | - |
* Rain latest hour (hover to see other rain measurements)
** Current wind speed in m/s (hover to see current wind gust speed)